Time,TemperatureF,DewpointF,PressureIn,WindDirection,WindDirectionDegrees,WindSpeedMPH,WindSpeedGustMPH,Humidity,HourlyPrecipIn,Conditions,Clouds,dailyrainin,SolarRadiationWatts/m^2,SoftwareType,DateUTC
2013-01-12 11:57:00,32.1,27.0,29.88,SW,235,6.0,13.0,82,0.00,,,0.00,125,weatherlink.com 1.10,2013-01-12 17:57:00,
2013-01-12 12:06:00,32.3,28.0,29.88,SW,225,5.0,11.0,83,0.00,,,0.00,186,weatherlink.com 1.10,2013-01-12 18:06:00,
2013-01-12 12:21:00,32.0,27.0,29.87,WSW,254,8.0,15.0,82,0.00,,,0.00,174,weatherlink.com 1.10,2013-01-12 18:21:00,
2013-01-12 12:36:00,32.1,28.0,29.88,WSW,242,3.0,9.0,83,0.00,,,0.00,74,weatherlink.com 1.10,2013-01-12 18:36:00,
2013-01-12 12:51:00,32.0,27.0,29.88,SW,232,4.0,15.0,82,0.00,,,0.00,74,weatherlink.com 1.10,2013-01-12 18:51:00,
2013-01-12 13:07:00,31.9,27.0,29.90,SW,215,6.0,7.0,81,0.00,,,0.00,151,weatherlink.com 1.10,2013-01-12 19:07:00,
2013-01-12 13:22:00,31.4,25.0,29.92,WSW,240,9.0,10.0,78,0.00,,,0.00,172,weatherlink.com 1.10,2013-01-12 19:22:00,
2013-01-12 13:37:00,31.4,26.0,29.92,SW,223,2.0,9.0,79,0.00,,,0.00,105,weatherlink.com 1.10,2013-01-12 19:37:00,
2013-01-12 13:52:00,31.0,25.0,29.93,SW,234,4.0,10.0,78,0.00,,,0.00,179,weatherlink.com 1.10,2013-01-12 19:52:00,
2013-01-12 14:07:00,31.0,25.0,29.94,SW,216,4.0,8.0,78,0.00,,,0.00,163,weatherlink.com 1.10,2013-01-12 20:07:00,
2013-01-12 14:22:00,30.6,25.0,29.93,SW,221,4.0,10.0,79,0.00,,,0.00,132,weatherlink.com 1.10,2013-01-12 20:22:00,
2013-01-12 14:37:00,30.5,25.0,29.94,SW,219,4.0,9.0,80,0.00,,,0.00,104,weatherlink.com 1.10,2013-01-12 20:37:00,
2013-01-12 14:52:00,30.3,25.0,29.95,SW,234,4.0,9.0,79,0.00,,,0.00,77,weatherlink.com 1.10,2013-01-12 20:52:00,
2013-01-12 15:07:00,30.3,25.0,29.96,SW,226,5.0,17.0,79,0.00,,,0.00,60,weatherlink.com 1.10,2013-01-12 21:07:00,
2013-01-12 15:22:00,30.1,24.0,29.95,SW,236,2.0,9.0,79,0.00,,,0.00,44,weatherlink.com 1.10,2013-01-12 21:22:00,
2013-01-12 15:37:00,30.0,25.0,29.97,SW,222,2.0,8.0,80,0.00,,,0.00,33,weatherlink.com 1.10,2013-01-12 21:37:00,
2013-01-12 15:52:00,29.8,24.0,29.97,SW,226,4.0,6.0,80,0.00,,,0.00,25,weatherlink.com 1.10,2013-01-12 21:52:00,
2013-01-12 16:07:00,29.7,24.0,29.97,SW,234,2.0,8.0,80,0.00,,,0.00,16,weatherlink.com 1.10,2013-01-12 22:07:00,
2013-01-12 16:22:00,29.6,24.0,29.98,WSW,239,4.0,8.0,79,0.00,,,0.00,7,weatherlink.com 1.10,2013-01-12 22:22:00,
2013-01-12 16:37:00,29.2,23.0,29.98,WSW,244,8.0,17.0,77,0.00,,,0.00,0,weatherlink.com 1.10,2013-01-12 22:37:00,
2013-01-12 16:52:00,28.9,23.0,30.00,West,261,9.0,17.0,78,0.00,,,0.00,0,weatherlink.com 1.10,2013-01-12 22:52:00,
2013-01-12 17:07:00,28.7,23.0,29.99,WSW,254,12.0,15.0,78,0.00,,,0.00,0,weatherlink.com 1.10,2013-01-12 23:07:00,
2013-01-12 17:22:00,28.4,23.0,29.99,WSW,246,9.0,14.0,79,0.00,,,0.00,0,weatherlink.com 1.10,2013-01-12 23:22:00,
2013-01-12 17:37:00,28.2,22.0,29.99,WSW,257,13.0,14.0,79,0.00,,,0.00,0,weatherlink.com 1.10,2013-01-12 23:37:00,
2013-01-12 17:52:00,28.1,23.0,29.97,West,267,9.0,12.0,81,0.00,,,0.00,0,weatherlink.com 1.10,2013-01-12 23:52:00,
2013-01-12 18:06:00,27.9,23.0,29.95,West,267,6.0,13.0,80,0.00,,,0.00,0,weatherlink.com 1.10,2013-01-13 00:06:00,
2013-01-12 18:21:00,27.8,22.0,29.95,West,264,7.0,12.0,80,0.00,,,0.00,0,weatherlink.com 1.10,2013-01-13 00:21:00,
2013-01-12 18:36:00,27.7,22.0,29.95,NW,304,9.0,11.0,80,0.00,,,0.00,0,weatherlink.com 1.10,2013-01-13 00:36:00,
2013-01-12 18:52:00,27.4,22.0,29.98,West,265,7.0,11.0,80,0.00,,,0.00,0,weatherlink.com 1.10,2013-01-13 00:52:00,
2013-01-12 19:06:00,27.2,21.0,29.97,WNW,283,9.0,14.0,77,0.00,,,0.00,0,weatherlink.com 1.10,2013-01-13 01:06:00,
2013-01-12 19:22:00,26.9,21.0,29.98,West,273,7.0,12.0,79,0.00,,,0.00,0,weatherlink.com 1.10,2013-01-13 01:22:00,
2013-01-12 19:37:00,26.7,21.0,29.99,WNW,290,9.0,11.0,79,0.00,,,0.00,0,weatherlink.com 1.10,2013-01-13 01:37:00,
2013-01-12 19:52:00,26.4,20.0,30.01,West,265,9.0,11.0,78,0.00,,,0.00,0,weatherlink.com 1.10,2013-01-13 01:52:00,
2013-01-12 20:07:00,26.1,20.0,30.03,WSW,252,11.0,13.0,77,0.00,,,0.00,0,weatherlink.com 1.10,2013-01-13 02:07:00,
2013-01-12 20:22:00,26.0,20.0,30.02,West,261,6.0,13.0,78,0.00,,,0.00,0,weatherlink.com 1.10,2013-01-13 02:22:00,
2013-01-12 20:37:00,25.8,20.0,30.03,West,261,7.0,10.0,80,0.00,,,0.00,0,weatherlink.com 1.10,2013-01-13 02:37:00,
2013-01-12 20:52:00,25.7,20.0,30.03,WSW,253,5.0,8.0,79,0.00,,,0.00,0,weatherlink.com 1.10,2013-01-13 02:52:00,
2013-01-12 21:07:00,25.6,20.0,30.03,West,278,4.0,7.0,80,0.00,,,0.00,0,weatherlink.com 1.10,2013-01-13 03:07:00,
2013-01-12 21:22:00,25.3,20.0,30.04,West,276,7.0,11.0,79,0.00,,,0.00,0,weatherlink.com 1.10,2013-01-13 03:22:00,
2013-01-12 21:37:00,25.2,20.0,30.03,West,272,8.0,11.0,80,0.00,,,0.00,0,weatherlink.com 1.10,2013-01-13 03:37:00,
2013-01-12 21:52:00,25.0,19.0,30.02,West,275,7.0,10.0,79,0.00,,,0.00,0,weatherlink.com 1.10,2013-01-13 03:52:00,
2013-01-12 22:07:00,24.8,19.0,30.00,West,269,6.0,9.0,79,0.00,,,0.00,0,weatherlink.com 1.10,2013-01-13 04:07:00,
2013-01-12 22:22:00,24.7,19.0,30.02,WNW,286,6.0,9.0,80,0.00,,,0.00,0,weatherlink.com 1.10,2013-01-13 04:22:00,
2013-01-12 22:37:00,24.5,20.0,30.01,NNW,331,8.0,9.0,82,0.00,,,0.00,0,weatherlink.com 1.10,2013-01-13 04:37:00,
2013-01-12 22:52:00,24.0,19.0,30.00,WNW,284,7.0,11.0,81,0.00,,,0.00,0,weatherlink.com 1.10,2013-01-13 04:52:00,
2013-01-12 23:07:00,23.5,19.0,29.98,NNW,327,7.0,11.0,81,0.00,,,0.00,0,weatherlink.com 1.10,2013-01-13 05:07:00,
2013-01-12 23:22:00,23.1,18.0,29.98,NW,311,8.0,13.0,81,0.00,,,0.00,0,weatherlink.com 1.10,2013-01-13 05:22:00,
2013-01-12 23:37:00,22.9,18.0,29.96,NNW,331,6.0,12.0,81,0.00,,,0.00,0,weatherlink.com 1.10,2013-01-13 05:37:00,
2013-01-12 23:52:00,22.7,18.0,29.96,NW,314,8.0,10.0,82,0.00,,,0.00,0,weatherlink.com 1.10,2013-01-13 05:52:00,